Location: Grossmotten
(48.5500°N, 15.3833°E)
Time: 04:15:20
(UTC+00:00)

Meteor 1-31 Rocket - Pass Details

Date: 15 November 2019
Orbit: 521 x 547 km, 97.6° (Epoch: 05 December)

Event Time Altitude Azimuth Distance (km) Brightness Sun altitude
Rises 04:12:14 0° 7° (N) 2,674 6.3 -18.7°
Reaches altitude 10° 04:14:24 10° 1° (N) 1,783 5.3 -18.3°
Maximum altitude 04:18:03 43° 289° (WNW) 757 3.0 -17.7°
Enters shadow 04:18:31 41° 268° (W) 785 3.1 -17.7°
